AirNav   Everest Fuels
 
 940 users online  

5D6 Parsons Airport
Carrollton, Ohio, USA

GOING TO CARROLLTON?


FAA INFORMATION EFFECTIVE 30 JANUARY 2020

Location

FAA Identifier: 5D6
Lat/Long: 40-38-53.2200N 081-04-07.3460W
40-38.887000N 081-04.122433W
40.6481167,-81.0687072
(estimated)
Elevation: 1290 ft. / 393 m (estimated)
Variation: 07W (1985)
From city: 5 miles N of CARROLLTON, OH
Time zone: UTC -5 (UTC -4 during Daylight Saving Time)
Zip code: 44615

Airport Operations

Airport use: Open to the public
Activation date: 05/1959
Control tower: no
ARTCC: CLEVELAND CENTER
FSS: CLEVELAND FLIGHT SERVICE STATION
NOTAMs facility: CLE (NOTAM-D service available)
Attendance: IREG
Wind indicator: yes
Segmented circle: no

Airport Communications

CTAF: 122.9
WX ASOS at PHD (19 nm SW): 121.425 (330-339-1125)

Nearby radio navigation aids

VOR radial/distance  VOR name  Freq  Var
BSVr113/17.4BRIGGS VOR/DME112.4004W
ACOr172/28.2AKRON VOR/DME114.4004W
CTWr044/31.3NEWCOMERSTOWN VOR/DME111.8007W
HLGr323/32.6WHEELING VOR/DME112.2007W
AIRr350/39.6BELLAIRE VOR/DME117.1007W

 
NDB name  Hdg/Dist  Freq  Var  ID
CADIZ001/24.823907WCFX -.-. ..-. -..-
CASTLE242/37.227209WUCP ..- -.-. .--.

Airport Services

Parking: tiedowns
Airframe service: MINOR
Powerplant service: MINOR
Bottled oxygen: NONE
Bulk oxygen: NONE

Runway Information

Runway 9/27

Dimensions: 2530 x 75 ft. / 771 x 23 m
Surface: turf, in good condition
RWY 27 SLOPES UP TO THE WEST BE ALERT: RECOMENDED TOUCHDOWN POINT MARKED WITH ORANGE EDGE MARKERS.
Runway edge markings: RWY 09/27 OUTLINED WITH ORANGE & YELLOW SIGNS, THLD MKD WITH YELLOW TIRES AT RWY ENDS.
Operational restrictions: NO LINE OF SIGHT BETWEEN RUNWAY ENDS
RUNWAY 9  RUNWAY 27
Latitude: 40-38.918333N40-38.918167N
Longitude: 081-04.429167W081-03.882000W
Elevation: 1280.0 ft.1280.0 ft.
Traffic pattern: leftleft
Markings: NSTDNSTD
Obstructions: 65 ft. trees, 375 ft. from runway, 5:1 slope to clear8 ft. crops, 55 ft. left of centerline

Airport Ownership and Management from official FAA records

Ownership: Privately-owned
Owner: DONNA M PARSONS
5043 KENSINGTON RD NE
CARROLLTON, OH 44615
Phone 330-627-5794
Manager: L. E. PARSONS
5043 KENSINGTON RD NE
CARROLLTON, OH 44615
Phone 330-627-5794

Airport Operational Statistics

Aircraft based on the field: 8
Single engine airplanes: 8
    
Aircraft operations: avg 32/week *
90% local general aviation
9% transient general aviation
<1% military
* for 12-month period ending 12 August 2017

Additional Remarks

DEER, BIRDS & OTHER WILDLIFE ON & INVOF ARPT
ACRBT PRACTICE AREA: WHEN ACTIVE 2280-5000'MSL WI ONE MI RAD OF APT
RWY SOFT WHEN WET.
FOR CD CTC CLEVELAND APCH AT 216-352-2323, WHEN APCH CLSD CTC CLEVELAND ARTCC AT 440-774-0490.

Instrument Procedures

There are no published instrument procedures at 5D6.

Some nearby airports with instrument procedures:

KTSO - Carroll County-Tolson Airport (5 nm S)
3G6 - Tri-City Airport (16 nm N)
KPHD - Harry Clever Field Airport (19 nm SW)
02G - Columbiana County Airport (20 nm E)
38D - Salem Airpark Inc (20 nm NE)
 
Loc | Ops | Rwys | IFR | FBO | Links
Com | Nav | Svcs | Stats | Notes
Area around 5D6 (Parsons Airport)
 
Road maps at: MapQuest Bing Google
 
Aerial photo
WARNING: Photo may not be current or correct
Aerial photo of 5D6 (Parsons Airport)
Photo by Rick Hunt
Photo taken 19-Oct-2014
looking east.

Do you have a better or more recent aerial photo of Parsons Airport that you would like to share? If so, please send us your photo.

 
Sectional chart

 
Airport distance calculator
Flying to Parsons Airport? Find the distance to fly.

From to 5D6

Sunrise and sunset
Times for 21-Feb-2020
 Local
(UTC-5)
 Zulu
(UTC)
Morning civil twilight06:4311:43
Sunrise07:1112:11
Sunset18:0523:05
Evening civil twilight18:3323:33

Current date and time
Zulu (UTC)  22-Feb-2020 01:31:29
Local (UTC-5)  21-Feb-2020 20:31:29
 
METAR
KPHD 
19nm SW 
220053Z AUTO 20004KT 10SM CLR M01/M12 A3047 RMK AO2 SLP332 T10111117
KCAK 
24nm NW 
220051Z 23010KT 10SM CLR M02/M12 A3042 RMK AO2 SLP320 T10171117
KAKR 
29nm NW 
220054Z AUTO 23009KT 10SM CLR 00/M12 A3041 RMK AO2 SLP312 T00001122 $
KBVI 
31nm E 
220116Z AUTO 21006KT 10SM CLR M01/M13 A3041 RMK AO2 T10151130
KHLG 
35nm SE 
220053Z 22005KT 10SM CLR M02/M14 A3044 RMK AO2 SLP331 T10221139
KPOV 
35nm N 
220115Z AUTO 23005KT 10SM CLR M02/M14 A3040 RMK AO2 T10161136 PWINO
KUCP 
37nm NE 
220056Z AUTO 21006KT 10SM CLR M02/M11 A3042 RMK AO2 SLP332 T10171106 PNO $
KPIT 
38nm E 
220051Z 22006KT 10SM CLR M02/M14 A3042 RMK AO2 SLP328 T10171139
TAF
KCAK 
24nm NW 
211723Z 2118/2218 25008KT P6SM SKC FM221600 23011G20KT P6SM SKC
NOTAMs
Click for the latest NOTAMs
NOTAMs are issued by the DoD/FAA and will open in a separate window not controlled by AirNav.

 

 
 

Would you like to see your business listed on this page?

 If your business provides an interesting product or service to pilots, flight crews, aircraft, or users of the Parsons Airport, you should consider listing it here.  To start the listing process, click on the button below
 
Add a business
 

Other Pages about Parsons Airport

Update a link
 
Copyright © AirNav, LLC. All rights reserved. Privacy Policy  Contact